Location: Klickitat County Star Party
(45.8642°N, 120.6771°W)
Time: 14:35:00
(UTC-07:00)

X-37B - Visible Passes

Search period start: 20 September 2020 00:00
Search period end: 30 September 2020 00:00
Orbit: 386 x 387 km, 45.0° (Epoch: 18 September)

Date Brightness Start Highest point End Pass type
(mag) Time Alt. Az. Time Alt. Az. Time Alt. Az.
20 Sep 0.6 05:19:14 44° WSW 05:20:01 66° S 05:23:11 10° ESE visible
21 Sep 3.0 04:23:27 21° E 04:23:27 21° E 04:24:38 10° E visible
21 Sep 1.4 05:55:45 16° W 05:57:55 35° SSW 06:00:51 10° SE visible
22 Sep 1.4 05:00:04 41° SSE 05:00:04 41° SSE 05:02:31 10° ESE visible
23 Sep 1.9 05:36:48 23° SW 05:37:12 23° SSW 05:39:49 10° SSE visible
24 Sep 3.4 04:41:23 12° SE 04:41:23 12° SE 04:41:43 10° SE visible
